This is the latest recevied weather packets stored in our database for station/object KB1WCR. If no packets are shown the sender has not sent any weather packets the latest 10 day(s).
| Time | Temp. | Humidity | Pressure | Rain* | Wind** | Luminosity | Snow |
|---|---|---|---|---|---|---|---|
| 1788172591 | 10° C | 99% | 1019.8 hPa | 0 mm | - | 17 W/m² | - |
| 1788172287 | 10.56° C | 99% | 1019.8 hPa | 0 mm | - | 14 W/m² | - |
| 1788171987 | 10.56° C | 99% | 1019.6 hPa | 0 mm | - | 12 W/m² | - |
| 1788171682 | 10.56° C | 99% | 1019.6 hPa | 0 mm | - | 10 W/m² | - |
| 1788171381 | 10.56° C | 99% | 1019.7 hPa | 0 mm | - | 8 W/m² | - |
| 1788171078 | 11.11° C | 99% | 1019.7 hPa | 0 mm | - | 5 W/m² | - |
| 1788170774 | 11.11° C | 99% | 1019.6 hPa | 0 mm | - | 3 W/m² | - |
| 1788170470 | 11.67° C | 98% | 1019.5 hPa | 0 mm | - | 2 W/m² | - |
| 1788170167 | 12.22° C | 98% | 1019.6 hPa | 0 mm | - | 1 W/m² | - |
| 1788169862 | 12.22° C | 97% | 1019.5 hPa | 0 mm | - | 0 W/m² | - |
| 1788169558 | 12.78° C | 97% | 1019.4 hPa | 0 mm | - | 0 W/m² | - |
| 1788169254 | 12.78° C | 97% | 1019.4 hPa | 0 mm | - | 0 W/m² | - |
| 1788168949 | 12.78° C | 97% | 1019.4 hPa | 0 mm | - | 0 W/m² | - |
| 1788168646 | 12.78° C | 97% | 1019.3 hPa | 0 mm | - | 0 W/m² | - |
| 1788168341 | 12.78° C | 98% | 1019.2 hPa | 0 mm | - | 0 W/m² | - |
| 1788168036 | 12.22° C | 99% | 1019.2 hPa | 0 mm | - | 0 W/m² | - |
| 1788167731 | 12.22° C | 99% | 1019.2 hPa | 0 mm | - | 0 W/m² | - |
| 1788167427 | 11.67° C | 99% | 1019.2 hPa | 0 mm | - | 0 W/m² | - |
| 1788167122 | 11.11° C | 99% | 1019.1 hPa | 0 mm | - | 0 W/m² | - |
| 1788166818 | 11.11° C | 99% | 1019 hPa | 0 mm | - | 0 W/m² | - |
| 1788166513 | 11.67° C | 99% | 1019 hPa | 0 mm | - | 0 W/m² | - |
| 1788166220 | 11.67° C | 99% | 1019 hPa | 0 mm | - | 0 W/m² | - |
| 1788165903 | 11.67° C | 99% | 1018.9 hPa | 0 mm | - | 0 W/m² | - |
| 1788165600 | 11.67° C | 99% | 1019 hPa | 0 mm | - | 0 W/m² | - |
| 1788165294 | 12.22° C | 99% | 1018.8 hPa | 0 mm | - | 0 W/m² | - |
* Rain latest hour (hover to see other rain measurements)
** Current wind speed in m/s (hover to see current wind gust speed)